Wind_Speed
14 8 7 0 4 7 3 5 8 11 7 9 9 10 13 15 16 14 12 5 5 7 4 10 10 7 13 10 9 10 10 8 11 7 9 12 10 15 10 9 11 10 10 9
19 11 8 2 2 5 5 8 9 11 10 12 15 19 17 12 4 9 11 2 13 5 5 10 15 15 9 11 4 10 10 10 8 8 6 7 9 11 13 12 13 12 12 13
22 10 9 5 2 4 5 9 8 10 9 12 14 10 3 4 3 4 10 10 10 7 3 11 15 14 12 2 4 8 11 7 6 6 8 8 6 8 10 9 10 11 16 14
16 15 8 5 6 5 3 7 9 8 12 7 9 4 11 5 5 8 10 10 6 2 2 5 9 6 7 19 8 6 3 1 4 3 3 3 6 7 9 12 13 16 14 14
10 8 9 9 7 8 6 7 10 10 12 2 7 4 4 4 6 5 7 6 3 2 4 5 4 3 3 7 7 2 7 3 2 3 2 2 4 7 7 9 11 12 14 16
16 8 10 10 12 10 12 12 14 7 3 0 7 5 3 7 8 7 5 5 4 1 3 6 7 5 9 6 11 14 6 6 4 4 4 3 3 5 7 8 8 10 12 15
10 10 9 13 12 9 3 5 2 1 2 3 8 1 3 5 9 6 5 5 6 2 3 4 9 10 10 7 11 12 9 6 10 10 7 6 5 4 5 8 10 11 13 15
3 5 2 7 10 6 3 1 2 3 4 5 2 3 3 7 5 4 5 2 2 3 4 5 7 8 6 6 10 21 18 16 12 15 11 8 6 6 6 8 9 11 13 17
1 3 4 7 8 6 5 3 2 2 3 3 2 6 8 8 8 4 4 5 6 7 7 10 8 8 10 10 9 7 9 18 13 10 16 12 12 9 7 11 12 12 14 18
3 1 5 5 5 4 3 2 0 2 3 7 5 7 11 11 9 8 9 9 7 5 7 8 4 7 8 10 10 11 13 14 14 16 12 14 12 15 11 10 13 15 15 15
10 13 6 5 5 5 3 4 3 2 3 5 6 5 6 8 10 11 9 7 7 10 9 8 8 9 7 12 15 18 18 16 15 17 14 17 19 19 17 8 13 17 15 13
8 8 8 11 10 8 7 7 5 6 5 6 4 10 9 6 12 14 11 6 4 5 2 3 8 9 11 14 17 17 15 15 16 15 17 16 19 22 23 16 11 14 15 14
8 9 5 4 7 10 9 9 7 5 5 7 6 9 11 10 11 16 14 12 7 6 5 9 14 16 16 18 20 18 15 16 14 19 22 15 12 17 21 18 9 15 14 9
7 8 8 10 8 9 9 12 10 7 7 10 14 15 18 21 18 17 21 22 23 19 13 11 17 19 19 19 16 17 14 12 10 13 11 15 16 13 15 19 17 13 13 9
9 10 12 14 14 13 14 14 13 13 13 14 19 20 24 22 23 21 20 19 20 20 18 16 19 20 18 17 16 18 16 16 13 13 18 15 16 12 13 23 23 18 14 12
11 12 13 14 13 14 16 16 18 20 21 22 20 20 16 14 16 18 19 16 18 21 19 19 20 21 21 20 17 18 18 12 10 12 14 16 15 18 18 22 20 18 18 17
14 14 13 14 14 16 17 21 24 25 19 12 10 13 12 13 14 14 14 14 16 17 16 18 19 18 19 20 19 19 20 16 15 15 14 14 17 17 17 20 23 23 21 22
24 21 19 14 10 9 14 13 14 16 14 13 14 14 14 15 15 15 15 17 19 19 18 19 21 22 23 23 22 22 19 19 19 19 19 21 26 29 25 23 25 25 25 25
13 19 11 6 11 12 10 12 12 15 16 17 19 19 18 17 18 18 19 21 22 24 26 27 27 28 27 27 28 28 29 27 28 29 28 26 26 28 28 27 25 25 27 26
7 13 14 10 6 5 6 15 18 18 14 19 18 19 20 21 24 22 25 27 28 28 30 32 34 35 35 33 35 36 35 36 36 38 39 39 36 33 32 31 29 26 25 28
5 4 10 12 9 6 12 12 13 7 9 9 9 13 18 23 27 31 32 35 40 42 43 44 46 49 48 44 43 47 46 45 44 45 46 44 43 44 40 39 34 32 29 27
5 4 5 6 5 7 11 9 8 12 15 20 24 27 32 35 37 37 38 39 40 41 42 43 48 51 53 54 54 55 56 52 50 52 51 53 48 46 47 46 45 38 36 31
6 8 6 7 7 11 17 18 19 23 26 28 31 30 31 33 35 37 37 38 40 43 45 45 44 45 45 46 48 51 51 49 49 52 52 48 51 52 53 52 51 50 44 40
11 13 13 13 13 15 18 22 25 26 27 26 28 32 35 38 39 40 42 41 44 40 37 38 39 38 38 37 40 44 44 44 45 46 46 46 44 45 45 44 43 45 40 41
12 12 13 16 16 20 22 23 25 24 25 30 33 35 36 38 41 44 45 45 43 40 36 36 37 37 40 39 37 35 38 39 43 44 45 42 42 42 41 42 42 40 37 37
10 11 12 15 21 22 21 19 25 29 30 32 35 36 37 39 41 41 42 39 40 39 34 34 35 39 41 41 35 27 29 33 35 37 37 36 37 36 37 39 39 38 36 33
Wind_Direction
239 272 224 263 342 352 329 330 331 346 323 325 331 312 312 306 300 300 294 287 137 140 184 204 192 229 188 201 205 220 219 217 241 256 256 254 249 244 256 209 218 226 224 225
239 253 217 225 344 355 278 270 309 315 323 327 313 307 304 293 268 292 278 227 147 190 219 237 212 241 278 55 11 217 206 214 219 232 262 239 238 236 241 234 229 230 221 230
243 208 203 230 332 323 301 307 312 300 316 319 313 323 4 272 247 323 92 127 156 166 184 253 254 262 253 181 41 183 205 206 230 252 268 237 250 241 247 246 234 231 228 231
232 217 233 246 249 310 292 328 319 312 321 318 343 321 31 77 128 112 101 106 97 154 172 267 273 263 283 244 328 118 72 217 228 266 292 237 223 223 240 234 227 226 233 231
215 210 234 249 256 295 279 311 324 311 309 30 0 327 11 69 128 139 138 142 156 169 270 222 249 222 197 254 283 171 246 244 230 229 256 254 254 240 234 238 253 260 253 254
214 239 238 249 252 256 269 304 314 301 289 171 355 346 346 349 317 281 216 215 213 193 261 238 240 247 215 214 233 239 201 230 256 231 212 193 221 269 259 242 244 252 256 256
232 236 228 247 255 258 283 358 333 177 29 14 346 310 285 25 11 358 226 224 216 206 9 293 254 237 209 277 258 259 259 226 324 269 232 232 222 233 276 272 262 258 261 267
191 151 269 252 201 175 218 250 41 354 336 337 330 279 304 342 345 339 319 261 216 207 326 303 268 209 175 299 299 260 315 238 322 245 240 239 246 259 269 278 279 279 271 277
170 124 109 130 137 167 194 167 147 165 247 272 265 280 279 320 299 276 287 249 239 251 301 293 306 231 255 281 273 238 239 240 256 258 250 246 247 252 275 292 294 293 285 290
246 224 191 156 130 130 161 168 302 288 276 293 266 262 278 289 277 266 265 258 261 287 234 233 299 251 282 253 268 270 265 243 242 246 236 252 256 256 252 278 296 294 302 296
253 243 225 232 228 193 211 241 265 200 214 296 293 284 292 271 234 228 227 216 171 135 180 195 223 235 239 244 267 276 282 262 253 242 241 255 272 262 261 260 276 288 302 318
251 228 236 240 244 230 229 232 254 284 280 233 253 269 293 280 222 215 202 196 174 161 165 227 225 242 250 253 250 276 279 279 253 247 245 261 275 284 280 296 253 274 287 284
230 209 172 178 230 239 241 250 263 276 273 230 257 275 283 319 255 244 240 249 244 249 265 233 231 241 255 257 261 281 274 290 254 234 258 266 280 300 296 301 269 268 276 287
215 229 227 259 270 268 253 251 248 251 269 280 264 284 292 287 277 272 262 264 267 263 266 268 249 245 252 254 264 275 284 294 281 261 265 269 270 271 272 277 275 268 272 272
245 259 270 273 274 273 264 263 257 257 263 265 294 284 296 284 277 280 280 272 257 253 271 258 251 251 254 257 263 272 280 283 279 246 257 271 277 285 250 269 270 265 268 270
261 269 268 256 267 263 260 259 263 266 269 277 288 295 304 301 291 280 282 272 272 267 273 258 255 255 257 255 263 268 274 266 262 255 249 251 263 257 270 270 285 285 274 270
265 264 261 261 262 266 269 262 258 261 265 263 274 291 311 310 304 294 290 279 267 264 264 261 264 263 266 273 277 272 271 269 274 268 255 248 254 270 281 282 280 277 274 268
253 250 250 261 268 253 268 269 263 256 246 257 279 291 291 292 287 283 284 281 278 272 268 264 264 266 273 277 278 277 276 281 279 277 279 274 274 280 285 284 277 276 274 270
246 242 237 230 226 266 276 247 246 239 249 266 275 280 279 280 278 282 283 274 272 275 278 274 269 267 268 269 269 268 268 268 276 280 284 282 282 280 283 288 282 272 268 271
214 222 215 225 232 253 246 243 243 247 269 269 271 270 275 279 283 286 284 285 285 285 284 281 278 275 271 268 268 267 266 269 269 271 275 279 278 274 276 281 284 280 274 261
197 204 218 234 244 263 273 254 253 250 276 258 272 277 280 284 284 284 282 282 283 283 282 280 279 278 274 269 266 266 263 263 269 269 270 271 272 270 264 267 272 278 272 270
236 246 224 234 249 266 250 260 251 256 270 282 286 287 287 285 285 285 285 286 284 283 284 284 280 276 275 274 272 269 266 267 268 268 265 266 265 262 262 266 270 271 273 266
257 243 244 245 241 267 275 282 278 281 286 290 291 292 291 292 295 295 294 293 292 288 284 286 285 280 281 279 274 270 268 266 264 265 265 262 261 260 259 262 266 270 268 265
269 275 271 280 271 278 280 287 292 296 296 295 296 298 299 299 301 299 299 294 298 300 291 286 283 279 285 288 284 273 268 262 261 261 265 265 262 260 261 263 263 264 262 256
272 278 281 279 281 282 286 293 295 297 293 296 300 301 302 300 297 297 296 293 295 294 293 287 283 281 285 292 291 277 267 263 260 261 265 265 265 264 262 259 262 262 260 254
272 273 285 285 297 295 302 303 302 300 300 302 304 303 301 301 304 305 302 297 291 291 289 289 285 282 285 286 286 280 265 263 262 262 263 265 266 268 263 257 257 258 258 251
Height
3190 3193 3194 3193 3193 3193 3192 3192 3191 3190 3189 3187 3184 3183 3182 3181 3179 3177 3176 3178 3181 3184 3187 3187 3188 3184 3188 3184 3184 3187 3186 3188 3187 3188 3188 3189 3189 3191 3189 3189 3192 3193 3195 3195
3191 3191 3193 3192 3193 3192 3192 3191 3191 3189 3187 3186 3182 3180 3179 3176 3176 3175 3174 3176 3179 3181 3183 3184 3185 3183 3186 3187 3188 3185 3185 3186 3186 3186 3186 3186 3187 3187 3187 3189 3190 3192 3193 3194
3188 3190 3191 3192 3192 3192 3191 3190 3189 3188 3186 3184 3181 3177 3176 3175 3175 3174 3174 3176 3177 3179 3180 3181 3182 3183 3186 3187 3186 3185 3186 3184 3186 3185 3185 3185 3186 3187 3187 3187 3187 3189 3191 3192
3187 3188 3189 3190 3191 3191 3190 3189 3188 3186 3185 3183 3180 3179 3176 3174 3174 3174 3175 3177 3178 3179 3180 3179 3180 3182 3183 3182 3185 3183 3184 3185 3184 3184 3184 3185 3186 3187 3186 3185 3185 3186 3188 3189
3185 3185 3187 3188 3189 3189 3190 3188 3186 3185 3183 3182 3181 3179 3177 3176 3175 3175 3176 3177 3178 3178 3178 3178 3179 3180 3183 3183 3184 3187 3188 3184 3183 3183 3184 3186 3187 3186 3185 3185 3186 3187 3187 3188
3182 3183 3185 3186 3187 3187 3187 3186 3184 3182 3182 3182 3181 3181 3177 3176 3175 3175 3176 3176 3177 3177 3177 3177 3177 3178 3179 3180 3180 3181 3183 3183 3183 3183 3183 3184 3185 3186 3186 3185 3185 3185 3185 3185
3181 3181 3182 3183 3183 3183 3184 3184 3183 3182 3182 3182 3181 3180 3178 3176 3175 3173 3174 3174 3175 3176 3177 3177 3176 3175 3176 3177 3177 3176 3178 3180 3181 3182 3182 3182 3182 3182 3183 3183 3181 3181 3181 3181
3179 3181 3179 3178 3179 3182 3182 3183 3183 3183 3181 3181 3180 3179 3178 3176 3175 3174 3173 3173 3174 3175 3176 3176 3176 3175 3176 3175 3176 3177 3177 3177 3178 3178 3179 3179 3179 3178 3177 3178 3177 3176 3175 3175
3177 3178 3178 3177 3178 3180 3180 3181 3182 3181 3181 3181 3179 3178 3177 3176 3175 3174 3173 3173 3174 3175 3175 3176 3173 3172 3171 3174 3173 3174 3175 3175 3175 3175 3176 3175 3174 3174 3172 3173 3174 3173 3171 3169
3176 3178 3178 3178 3178 3178 3179 3180 3180 3179 3178 3177 3176 3175 3174 3174 3173 3173 3172 3172 3172 3173 3172 3171 3171 3172 3170 3170 3171 3170 3170 3169 3171 3171 3171 3171 3171 3170 3170 3169 3170 3170 3167 3164
3173 3176 3178 3177 3177 3176 3178 3177 3177 3178 3178 3176 3174 3173 3171 3170 3171 3171 3171 3170 3170 3170 3168 3168 3169 3169 3168 3168 3167 3165 3164 3166 3166 3165 3166 3166 3167 3168 3165 3167 3165 3166 3165 3161
3169 3171 3173 3174 3174 3174 3175 3174 3174 3174 3175 3174 3174 3172 3169 3168 3169 3169 3169 3169 3169 3168 3166 3166 3165 3164 3164 3164 3163 3162 3161 3161 3162 3162 3160 3161 3163 3165 3153 3151 3158 3163 3163 3159
3166 3168 3171 3172 3174 3172 3171 3170 3171 3171 3170 3170 3171 3168 3166 3166 3166 3166 3166 3166 3166 3165 3165 3163 3160 3159 3158 3158 3158 3158 3157 3156 3155 3157 3159 3158 3157 3159 3157 3152 3154 3160 3162 3157
3165 3165 3166 3167 3167 3168 3168 3167 3167 3168 3168 3165 3165 3164 3164 3163 3162 3163 3162 3161 3161 3161 3160 3159 3158 3156 3156 3156 3155 3155 3154 3154 3153 3153 3152 3153 3154 3154 3157 3158 3158 3158 3158 3157
3164 3163 3164 3164 3164 3164 3164 3163 3162 3162 3163 3162 3160 3159 3159 3157 3155 3156 3155 3155 3155 3156 3155 3154 3152 3152 3152 3152 3152 3151 3151 3149 3149 3149 3148 3148 3151 3148 3151 3155 3154 3152 3152 3153
3161 3161 3161 3161 3160 3160 3159 3160 3158 3157 3157 3156 3155 3153 3152 3151 3150 3150 3149 3150 3150 3151 3151 3150 3149 3149 3148 3147 3147 3147 3147 3146 3146 3145 3144 3143 3144 3147 3147 3147 3145 3144 3146 3147
3158 3158 3158 3157 3157 3156 3155 3153 3152 3151 3151 3152 3151 3150 3148 3147 3146 3146 3146 3146 3147 3147 3147 3147 3146 3145 3144 3143 3141 3140 3140 3141 3141 3140 3140 3139 3138 3138 3139 3140 3139 3141 3142 3142
3152 3153 3154 3153 3154 3151 3146 3146 3146 3146 3146 3147 3146 3145 3143 3142 3142 3142 3142 3142 3142 3142 3142 3141 3140 3140 3139 3138 3137 3135 3134 3133 3134 3134 3134 3133 3133 3131 3131 3132 3133 3134 3136 3136
3145 3147 3149 3150 3148 3145 3144 3143 3143 3143 3143 3143 3142 3140 3139 3138 3137 3138 3137 3136 3136 3135 3133 3133 3132 3131 3131 3131 3129 3128 3127 3127 3126 3125 3125 3126 3125 3125 3123 3123 3126 3126 3127 3129
3143 3143 3146 3145 3145 3142 3139 3139 3138 3139 3139 3138 3137 3137 3136 3135 3133 3134 3131 3129 3128 3127 3126 3125 3123 3122 3121 3122 3119 3118 3118 3117 3117 3116 3116 3116 3116 3116 3116 3115 3116 3117 3119 3120
3141 3141 3142 3142 3141 3139 3137 3135 3136 3139 3140 3134 3134 3133 3132 3130 3129 3126 3124 3122 3119 3116 3114 3113 3110 3107 3107 3109 3107 3103 3104 3104 3105 3105 3104 3105 3106 3105 3106 3106 3107 3108 3110 3111
3139 3140 3139 3139 3139 3137 3134 3134 3136 3134 3131 3130 3129 3127 3124 3122 3120 3117 3114 3110 3107 3103 3100 3098 3093 3090 3089 3088 3087 3087 3086 3090 3092 3088 3090 3090 3093 3095 3094 3094 3095 3098 3099 3102
3137 3137 3137 3138 3135 3132 3131 3130 3129 3127 3125 3124 3121 3119 3114 3111 3109 3106 3102 3099 3095 3091 3087 3084 3079 3074 3073 3072 3071 3066 3069 3071 3073 3071 3073 3077 3077 3080 3081 3082 3084 3085 3089 3090
3131 3131 3131 3132 3129 3128 3126 3124 3122 3120 3118 3116 3113 3109 3105 3100 3097 3093 3089 3086 3082 3078 3073 3070 3066 3063 3060 3059 3055 3052 3052 3055 3055 3055 3057 3059 3062 3064 3066 3068 3069 3072 3076 3078
3129 3128 3127 3126 3125 3122 3121 3119 3116 3114 3111 3108 3105 3100 3095 3091 3086 3081 3076 3072 3068 3064 3062 3057 3053 3050 3048 3045 3042 3039 3038 3039 3040 3041 3043 3044 3047 3050 3051 3054 3056 3059 3062 3066
3124 3123 3123 3121 3120 3117 3116 3114 3111 3106 3104 3099 3094 3089 3086 3080 3073 3068 3062 3060 3055 3052 3049 3045 3042 3038 3036 3033 3031 3029 3028 3028 3028 3029 3031 3033 3034 3035 3037 3039 3043 3046 3050 3054